Beaufort, SC

12:47 AM EDT on September 20, 2017 (GMT -0400)
Beaufort

Weather History for KARW - March, 2013

Change the Weather History Date:

Monday, March 25, 2013

  Actual Average (KNBC) Record (KNBC)
Temperature  
Mean Temperature 52 °F -  
Max Temperature 59 °F 70 °F 89 °F (1938)
Min Temperature 44 °F 48 °F 30 °F (1956)
Degree Days  
Heating Degree Days 14    
Growing Degree Days 2 (Base 50)    
Moisture  
Dew Point 31 °F    
Average Humidity 49    
Maximum Humidity 94    
Minimum Humidity 25    
Precipitation  
Precipitation 0.00 in - - ()
Sea Level Pressure  
Sea Level Pressure 29.78 in    
Wind  
Wind Speed 13 mph (WNW)    
Max Wind Speed 30 mph    
Max Gust Speed 39 mph    
Visibility 10 miles    
Events      
Averages and records for this station are not official NWS values.
T = Trace of Precipitation, MM = Missing Value Source: NWS Daily Summary

Daily Weather History Graph

Daily Weather History Graph

Search for Another Location

Airport or City:

Trip Planner

Search our weather history database for the weather conditions in past years. The results will help you decide how hot, cold, wet, or windy it might be!

Date:

Astronomy

Mar. 25, 2013 Rise Set
Actual Time 7:19 AM EDT 7:37 PM EDT
Civil Twilight 6:54 AM EDT 8:02 PM EDT
Nautical Twilight 6:26 AM EDT 8:31 PM EDT
Astronomical Twilight 5:57 AM EDT 9:00 PM EDT
Moon 6:10 PM EDT (3/25) 5:57 AM EDT (3/25)
Length of Visible Light 13h 07m
Length of Day
12h 18m
Waxing Gibbous, 96% of the Moon is Illuminated
Mar 25
Waxing Gibbous
Mar 27
Full
Apr 3
Last Quarter
Apr 10
New
Apr 18
First Quarter

Hourly Weather History & Observations

Time (EDT) Temp. Windchill Dew Point Humidity Pressure Visibility Wind Dir Wind Speed Gust Speed Precip Events Conditions
12:15 AM 51.8 °F - 48.2 °F 88% 29.60 in 10.0 mi Calm Calm - N/A   Overcast
12:35 AM 51.8 °F - 48.2 °F 88% 29.61 in 10.0 mi Calm Calm - N/A   Overcast
12:55 AM 51.8 °F - 50.0 °F 94% 29.62 in 10.0 mi Calm Calm - N/A   Overcast
1:15 AM 51.8 °F - 50.0 °F 94% 29.63 in 10.0 mi WNW 4.6 mph - N/A   Overcast
1:35 AM 51.8 °F - 50.0 °F 94% 29.65 in 10.0 mi WSW 5.8 mph - N/A   Overcast
1:55 AM 53.6 °F - 50.0 °F 88% 29.65 in 10.0 mi West 4.6 mph - N/A   Overcast
2:15 AM 53.6 °F - 50.0 °F 88% 29.65 in 10.0 mi West 6.9 mph - N/A   Overcast
2:35 AM 53.6 °F - 50.0 °F 88% 29.65 in 10.0 mi WNW 6.9 mph - N/A   Overcast
2:55 AM 53.6 °F - 48.2 °F 82% 29.66 in 10.0 mi WNW 13.8 mph 19.6 mph N/A   Mostly Cloudy
3:15 AM 53.6 °F - 46.4 °F 77% 29.66 in 10.0 mi West 15.0 mph 19.6 mph N/A   Mostly Cloudy
3:35 AM 51.8 °F - 44.6 °F 76% 29.66 in 10.0 mi West 10.4 mph 16.1 mph N/A   Scattered Clouds
3:55 AM 51.8 °F - 44.6 °F 76% 29.66 in 10.0 mi West 11.5 mph - N/A   Clear
4:35 AM 51.8 °F - 44.6 °F 76% 29.66 in 10.0 mi West 9.2 mph - N/A   Clear
4:55 AM 51.8 °F - 42.8 °F 71% 29.67 in 10.0 mi West 15.0 mph 24.2 mph N/A   Scattered Clouds
5:15 AM 51.8 °F - 41.0 °F 67% 29.68 in 10.0 mi West 12.7 mph 25.3 mph N/A   Scattered Clouds
5:35 AM 50.0 °F - 41.0 °F 71% 29.69 in 10.0 mi WNW 18.4 mph 25.3 mph N/A   Overcast
5:55 AM 50.0 °F - 37.4 °F 62% 29.70 in 10.0 mi WNW 18.4 mph 25.3 mph N/A   Mostly Cloudy
6:15 AM 48.2 °F - 33.8 °F 58% 29.72 in 10.0 mi WNW 23.0 mph 34.5 mph N/A   Scattered Clouds
6:35 AM 46.4 °F 39.8 °F 32.0 °F 57% 29.74 in 10.0 mi WNW 16.1 mph 26.5 mph N/A   Clear
6:55 AM 46.4 °F 40.1 °F 32.0 °F 57% 29.75 in 10.0 mi West 15.0 mph 21.9 mph N/A   Clear
7:15 AM 44.6 °F 35.9 °F 32.0 °F 61% 29.75 in 10.0 mi West 23.0 mph 35.7 mph N/A   Clear
7:55 AM 44.6 °F 36.9 °F 32.0 °F 61% 29.77 in 10.0 mi West 18.4 mph 28.8 mph N/A   Clear
8:15 AM 46.4 °F 39.2 °F 32.0 °F 57% 29.77 in 10.0 mi West 18.4 mph 29.9 mph N/A   Clear
8:35 AM 46.4 °F 38.7 °F 32.0 °F 57% 29.78 in 10.0 mi West 20.7 mph 25.3 mph N/A   Clear
8:55 AM 46.4 °F 38.5 °F 32.0 °F 57% 29.78 in 10.0 mi West 21.9 mph 26.5 mph N/A   Clear
9:35 AM 48.2 °F - 30.2 °F 50% 29.79 in 10.0 mi West 26.5 mph 38.0 mph N/A   Clear
9:55 AM 48.2 °F - 28.4 °F 46% 29.79 in 10.0 mi West 23.0 mph 36.8 mph N/A   Clear
10:15 AM 50.0 °F - 30.2 °F 47% 29.79 in 10.0 mi West 21.9 mph 33.4 mph N/A   Clear
10:35 AM 50.0 °F - 28.4 °F 43% 29.79 in 10.0 mi West 25.3 mph 35.7 mph N/A   Clear
10:55 AM 50.0 °F - 28.4 °F 43% 29.80 in 10.0 mi West 23.0 mph 34.5 mph N/A   Clear
11:15 AM 51.8 °F - 28.4 °F 41% 29.80 in 10.0 mi West 20.7 mph 33.4 mph N/A   Clear
11:35 AM 51.8 °F - 30.2 °F 44% 29.80 in 10.0 mi West 23.0 mph 31.1 mph N/A   Clear
11:55 AM 53.6 °F - 30.2 °F 41% 29.80 in 10.0 mi West 18.4 mph 32.2 mph N/A   Scattered Clouds
12:15 PM 53.6 °F - 28.4 °F 38% 29.80 in 10.0 mi West 23.0 mph 31.1 mph N/A   Clear
12:35 PM 53.6 °F - 30.2 °F 41% 29.80 in 10.0 mi WNW 20.7 mph 28.8 mph N/A   Clear
12:55 PM 53.6 °F - 30.2 °F 41% 29.80 in 10.0 mi West 21.9 mph 31.1 mph N/A   Clear
1:15 PM 55.4 °F - 28.4 °F 36% 29.80 in 10.0 mi West 21.9 mph 32.2 mph N/A   Clear
1:55 PM 57.2 °F - 28.4 °F 33% 29.79 in 10.0 mi West 24.2 mph 32.2 mph N/A   Scattered Clouds
2:15 PM 55.4 °F - 26.6 °F 33% 29.78 in 10.0 mi WNW 25.3 mph 38.0 mph N/A   Scattered Clouds
2:35 PM 57.2 °F - 26.6 °F 31% 29.78 in 10.0 mi WNW 26.5 mph 39.1 mph N/A   Clear
2:55 PM 57.2 °F - 24.8 °F 29% 29.78 in 10.0 mi West 21.9 mph 36.8 mph N/A   Clear
3:15 PM 59.0 °F - 24.8 °F 27% 29.78 in 10.0 mi West 24.2 mph 34.5 mph N/A   Clear
3:35 PM 59.0 °F - 26.6 °F 29% 29.78 in 10.0 mi West 29.9 mph 35.7 mph N/A   Clear
3:55 PM 59.0 °F - 26.6 °F 29% 29.78 in 10.0 mi West 24.2 mph 29.9 mph N/A   Clear
4:15 PM 59.0 °F - 26.6 °F 29% 29.78 in 10.0 mi WNW 24.2 mph 32.2 mph N/A   Clear
4:35 PM 59.0 °F - 26.6 °F 29% 29.79 in 10.0 mi West 21.9 mph 28.8 mph N/A   Clear
4:55 PM 57.2 °F - 23.0 °F 27% 29.79 in 10.0 mi WNW 21.9 mph 33.4 mph N/A   Clear
5:35 PM 59.0 °F - 23.0 °F 25% 29.79 in 10.0 mi WNW 25.3 mph 29.9 mph N/A   Clear
5:55 PM 57.2 °F - 21.2 °F 25% 29.80 in 10.0 mi WNW 19.6 mph 29.9 mph N/A   Clear
6:15 PM 55.4 °F - 19.4 °F 25% 29.81 in 10.0 mi West 21.9 mph 31.1 mph N/A   Clear
6:35 PM 55.4 °F - 19.4 °F 25% 29.82 in 10.0 mi West 19.6 mph 28.8 mph N/A   Clear
6:55 PM 55.4 °F - 19.4 °F 25% 29.83 in 10.0 mi WNW 19.6 mph 27.6 mph N/A   Clear
7:15 PM 53.6 °F - 21.2 °F 28% 29.84 in 10.0 mi WNW 18.4 mph 28.8 mph N/A   Clear
7:35 PM 53.6 °F - 21.2 °F 28% 29.86 in 10.0 mi WNW 15.0 mph 24.2 mph N/A   Clear
7:55 PM 51.8 °F - 21.2 °F 30% 29.87 in 10.0 mi WNW 16.1 mph 20.7 mph N/A   Clear
8:15 PM 51.8 °F - 21.2 °F 30% 29.88 in 10.0 mi WNW 12.7 mph 19.6 mph N/A   Clear
8:35 PM 51.8 °F - 21.2 °F 30% 29.89 in 10.0 mi WNW 13.8 mph 20.7 mph N/A   Clear
8:55 PM 51.8 °F - 21.2 °F 30% 29.91 in 10.0 mi WNW 15.0 mph 21.9 mph N/A   Clear
9:15 PM 50.0 °F - 21.2 °F 32% 29.92 in 10.0 mi WNW 9.2 mph 19.6 mph N/A   Clear
9:55 PM 48.2 °F - 21.2 °F 34% 29.95 in 10.0 mi NW 13.8 mph 25.3 mph N/A   Clear
10:15 PM 46.4 °F 39.0 °F 21.2 °F 37% 29.96 in 10.0 mi NW 19.6 mph 26.5 mph N/A   Clear
10:35 PM 46.4 °F 39.0 °F 21.2 °F 37% 29.97 in 10.0 mi NW 19.6 mph 26.5 mph N/A   Clear
10:55 PM 46.4 °F 39.8 °F 21.2 °F 37% 29.98 in 10.0 mi WNW 16.1 mph 23.0 mph N/A   Clear
11:15 PM 44.6 °F 36.1 °F 21.2 °F 39% 29.99 in 10.0 mi WNW 21.9 mph 29.9 mph N/A   Clear
11:35 PM 44.6 °F 37.8 °F 23.0 °F 43% 30.00 in 10.0 mi WNW 15.0 mph 21.9 mph N/A   Clear